Watertown, NY

12:32 AM EDT on September 21, 2017 (GMT -0400)
Watertown International

Weather History for KART - October, 2012

Change the Weather History Date:

Saturday, October 13, 2012

  Actual Average Record
Temperature  
Mean Temperature 37 °F 49 °F  
Max Temperature 52 °F 59 °F 84 °F (1983)
Min Temperature 22 °F 39 °F 22 °F (2012)
Degree Days  
Heating Degree Days 28 16  
Month to date heating degree days 160 182  
Since 1 July heating degree days 346 456  
Cooling Degree Days 0 0  
Month to date cooling degree days 0 0  
Year to date cooling degree days 606 359  
Moisture  
Dew Point 28 °F    
Average Humidity 64    
Maximum Humidity 92    
Minimum Humidity 36    
Precipitation  
Precipitation 0.15 in 0.12 in 1.23 in (2005)
Month to date precipitation 1.79 1.64  
Year to date precipitation 27.85 27.16  
Sea Level Pressure  
Sea Level Pressure 30.34 in    
Wind  
Wind Speed 5 mph (SSE)    
Max Wind Speed 14 mph    
Max Gust Speed 20 mph    
Visibility 10 miles    
Events Rain    
T = Trace of Precipitation, MM = Missing Value Source: NWS Daily Summary

Daily Weather History Graph

Daily Weather History Graph

Search for Another Location

Airport or City:

Trip Planner

Search our weather history database for the weather conditions in past years. The results will help you decide how hot, cold, wet, or windy it might be!

Date:

Astronomy

Oct. 13, 2012 Rise Set
Actual Time 7:16 AM EDT 6:22 PM EDT
Civil Twilight 6:47 AM EDT 6:51 PM EDT
Nautical Twilight 6:14 AM EDT 7:25 PM EDT
Astronomical Twilight 5:40 AM EDT 7:58 PM EDT
Moon 5:00 AM EDT (10/13) 5:07 PM EDT (10/13)
Length of Visible Light 12h 04m
Length of Day
11h 06m
Waning Crescent, 5% of the Moon is Illuminated
Oct 13
Waning Crescent
Oct 15
New
Oct 21
First Quarter
Oct 29
Full
Nov 6
Last Quarter

Hourly Weather History & Observations

Time (EDT) Temp. Windchill Dew Point Humidity Pressure Visibility Wind Dir Wind Speed Gust Speed Precip Events Conditions
12:56 AM 26.1 °F 21.9 °F 24.1 °F 92% 30.44 in 10.0 mi East 3.5 mph - N/A   Clear
1:56 AM 26.6 °F - 24.8 °F 93% 30.42 in 10.0 mi Calm Calm - N/A   Clear
2:56 AM 24.8 °F - 21.2 °F 86% 30.42 in 10.0 mi Calm Calm - N/A   Clear
3:56 AM 24.1 °F 19.7 °F 21.9 °F 91% 30.43 in 10.0 mi East 3.5 mph - N/A   Clear
4:56 AM 24.1 °F - 21.9 °F 91% 30.44 in 10.0 mi Calm Calm - N/A   Clear
6:56 AM 28.0 °F - 23.0 °F 81% 30.44 in 10.0 mi Calm Calm - N/A   Clear
7:56 AM 32.0 °F 28.7 °F 24.1 °F 73% 30.45 in 10.0 mi SSE 3.5 mph - N/A   Clear
8:56 AM 37.0 °F 33.3 °F 28.0 °F 70% 30.45 in 10.0 mi Variable 4.6 mph - N/A   Clear
9:56 AM 44.1 °F 39.5 °F 30.0 °F 58% 30.45 in 10.0 mi South 8.1 mph - N/A   Partly Cloudy
10:56 AM 48.0 °F - 30.9 °F 52% 30.43 in 10.0 mi South 9.2 mph - N/A   Partly Cloudy
11:56 AM 50.0 °F - 30.0 °F 46% 30.42 in 10.0 mi SW 13.8 mph 19.6 mph N/A   Clear
12:56 PM 48.0 °F - 28.9 °F 48% 30.39 in 10.0 mi SSW 9.2 mph - N/A   Overcast
1:56 PM 52.0 °F - 30.0 °F 43% 30.35 in 10.0 mi WSW 8.1 mph - N/A   Clear
2:56 PM 51.1 °F - 26.1 °F 38% 30.33 in 10.0 mi South 9.2 mph - N/A   Clear
3:56 PM 50.0 °F - 25.0 °F 38% 30.30 in 10.0 mi Variable 4.6 mph - N/A   Mostly Cloudy
4:56 PM 48.9 °F - 28.0 °F 44% 30.29 in 10.0 mi Calm Calm - 0.00 in Rain Light Rain
5:56 PM 48.0 °F - 30.0 °F 50% 30.25 in 10.0 mi Calm Calm - 0.00 in   Overcast
6:56 PM 46.9 °F - 32.0 °F 56% 30.22 in 10.0 mi Calm Calm - N/A   Overcast
7:56 PM 46.9 °F - 28.9 °F 50% 30.17 in 10.0 mi SSE 6.9 mph - 0.00 in   Overcast
9:56 PM 44.6 °F 42.2 °F 35.6 °F 71% 30.12 in 10.0 mi SSE 4.6 mph - N/A Rain Light Rain
10:56 PM 44.1 °F 40.8 °F 37.9 °F 79% 30.11 in 4.0 mi SSE 5.8 mph - 0.06 in Rain Rain
11:56 PM 44.1 °F 41.5 °F 39.0 °F 82% 30.07 in 10.0 mi SSE 4.6 mph - 0.04 in Rain Light Rain